1306713625361,3.79322
1306713685361,3.77321
1306713745361,3.78736
1306713805361,3.78511
1306713865361,3.82861
1306713925361,3.79076
1306713985361,3.76928
1306714045361,3.78047
1306714105361,3.76637
1306714165361,3.78913
1306714225361,3.81164
1306714285361,3.77137
1306714345361,3.79506
1306714405361,3.76284
1306714465361,3.80969
1306714525361,3.79431
1306714585361,3.79294
1306714645361,3.80424
1306714705361,3.74977
1306714765361,3.76222
1306714825361,3.79135
1306714885361,3.77658
1306714945361,3.77936
1306715005361,3.76936
1306715065361,3.78142
1306715125361,3.78555
1306715185361,3.78502
1306715245361,3.77911
1306715305361,3.76524
1306715365361,3.76265
1306715425361,3.79833
1306715485361,3.79548
1306715545361,3.78757
1306715605361,3.79160
1306715665361,3.77036
1306715725361,3.77916
1306715785361,3.76625
1306715845361,3.77279
1306715905361,3.79000
1306715965361,3.80453
1306716025361,3.77425
1306716085361,3.75764
1306716145361,3.77151
1306716205361,3.76568
1306716265361,3.76743
1306716325361,3.75273
1306716385361,3.76691
1306716445361,3.74011
1306716505361,3.77769
1306716565361,3.75442
1306716625361,3.75364
1306716685361,3.75629
1306716745361,3.76866
1306716805361,3.80539
1306716865361,3.79748
1306716925361,3.74032
1306716985361,3.75367
1306717045361,3.77233
1306717105361,3.79031
1306717165361,3.76211
1306717225371,3.82644
1306717285371,3.80860
1306717345371,3.79698
1306717405371,3.79402
1306717465371,3.77283
1306717525371,3.76230
1306717585371,3.77708
1306717645371,3.81724
1306717705371,3.76913
1306717765371,3.83296
1306717825371,3.78651
1306717885371,3.77844
1306718425371,3.80087
1306718485371,3.79070
1306718545371,3.78608
1306718605371,3.81057
1306718665371,3.77166
1306718725371,3.73438
1306718785371,3.82007
1306718845371,3.81428
1306718905371,3.79355
1306718965371,3.81679
1306719025371,3.80658
1306719085371,3.82127
1306719145371,3.85468
1306719205371,3.82506
1306719265371,3.79943
1306719325371,3.79961
1306719385371,3.77834
1306719445371,3.78524
1306719505371,3.92298
1306719565371,3.79311
1306719625371,3.77176
1306719685371,3.80395
1306719745371,3.78733
1306719805371,3.80083
1306719865371,3.79352
1306719925371,3.80658
1306719985371,3.79884
1306720045371,3.81679
1306720105371,3.77926
1306720165371,3.86365
1306720225371,3.78081
1306720285371,3.78562
1306720345371,3.79688
1306720405371,3.80014
1306720465371,3.77085
1306720525371,3.80598
1306720585371,3.79334
1306720645371,3.80434
1306720705371,3.82232
1306720765371,3.78878
1306720825382,3.75726
1306720885382,3.77832
1306720945382,3.78675
1306721005382,3.81559
1306721065382,3.78998
1306721125382,3.78370
1306721185382,3.78588
1306721245382,3.76374
1306721305382,3.77352
1306721365382,3.79905
1306721425382,3.77072
1306721485382,3.79256
1306721545382,3.79852
1306721605382,3.78772
1306721665382,3.75059
1306721725382,3.76280
1306721785382,3.80364
1306721845382,3.81382
1306721905382,3.80334
1306721965382,3.81324
1306722025382,3.80115
1306722085382,3.81202
1306722145382,3.81953
1306722205382,3.80562
1306722265382,3.77522
1306722325382,3.81916
1306722385382,3.81131
1306722445382,3.78495
1306722505382,3.80063
1306722565382,3.85117
1306722625382,3.82362
1306722685382,3.79596
1306722745382,3.81419
1306722805382,3.77273
1306722865382,3.82638
1306722925382,3.79441
1306722985382,3.81069
1306723045382,3.75368
1306723105382,3.81634
1306723165382,3.76318
1306723225382,3.79172
1306723285382,3.78772
1306723345382,3.78502
1306723405382,3.78599
1306723465382,3.79516
1306723525382,3.79755
1306723585382,3.77828
1306723645382,3.76572
1306723705382,3.79614
1306723765382,3.83160
1306723825382,3.82778
1306723885382,3.85333
1306723945382,4.01854
1306724005382,4.02428
1306724065382,3.95408
1306724125382,3.86961
1306724185382,3.84784
1306724245382,3.80331
1306724305382,3.79037
1306724365382,3.77636
1306724425392,3.77064
1306724485392,3.77947
1306724545392,3.75301
1306724605392,3.76854
1306724665392,3.76562
1306724725392,3.74352
1306724785392,3.71601
1306724845392,3.75041
1306724905392,3.74333
1306724965392,3.72997
1306725025392,3.71082
1306725085392,3.75049
1306725145392,3.74794
1306725205392,3.74392
1306725265392,3.72381
1306725325392,3.71094
1306725385392,3.72468
1306725445392,3.74962
1306725505392,3.73115
1306725565392,3.74008
1306725625392,3.71105
1306725685392,3.72484
1306725745392,3.74721
1306725805392,3.74786
1306725865392,3.73872
1306725925392,3.72621
1306725985392,3.75050
1306726045392,3.71338
1306726105392,3.73847
1306726165392,3.74854
1306726225392,3.73992
1306726285392,3.73524
1306726345392,3.71675
1306726405392,3.73624
1306726465392,3.69763
1306726525392,3.71130
1306726585392,3.66597
1306726645392,3.71144
1306726705392,3.70323
1306726765392,3.71715
1306726825392,3.73378
1306726885392,3.70092
1306726945392,3.71733
1306727005392,3.75020
1306727065392,3.74816
1306727125392,3.69172
1306727185392,3.70991
1306727245392,3.70904
1306727305392,3.75420
1306727365392,3.71684
1306727425392,3.74287
1306727485392,3.72577
1306727545392,3.72746
1306727605392,3.70053
1306727665392,3.75928
1306727725392,3.71064
1306727785392,3.72112
1306727845392,3.70493
1306727905392,3.76178
1306727965392,3.75171
1306728025402,3.74233
1306728085402,3.72345
1306728145402,3.72977
1306728205402,3.71667
1306728265402,3.73675
1306728325402,3.69816
1306728385402,3.73574
1306728445402,3.72421
1306728505402,3.70946
1306728565402,3.71186
1306728625402,3.71316
1306728685402,3.75427
1306728745402,3.72183
1306728805402,3.72243
1306728865402,3.73000
1306728925402,3.69670
1306728985402,3.73181
1306729045402,3.74121
1306729105402,3.76001
1306729165402,3.72211
1306729225402,3.71415
1306729285402,3.73575
1306729345402,3.72686
1306729405402,3.69420
1306729465402,3.70942
1306729525402,3.72629
1306729585402,3.71857
1306729645402,3.72642
1306729705402,3.68293
1306729765402,3.72689
1306729825402,3.71243
1306729885402,3.76525
1306729945402,3.72809
1306730005402,3.77050
1306730065402,3.72241
1306730125402,3.73290
1306730185402,3.71045
1306730245402,3.72917
1306730305402,3.75079
1306730365402,3.68347
1306730425402,3.70683
1306730485402,3.71333
1306730545402,3.70101
1306730605402,3.66669
1306730665402,3.71062
1306730725402,3.73697
1306730785402,3.70223
1306730845402,3.71058
1306730905402,3.73274
1306730965402,3.71266
1306731025402,3.72570
1306731085402,3.75122
1306731145402,3.71964
1306731205402,3.72582
1306731265402,3.74515
1306731325402,3.73724
1306731385402,3.71402
1306731445402,3.75471
1306731505402,3.70383
1306731565402,3.71465
1306731625411,3.68710
1306731685411,3.73493
1306731745411,3.73080
1306731805411,3.73429
1306731865411,3.74396
1306731925411,3.71067
1306731985411,3.73221
1306732045411,3.71962
1306732105411,3.76483
1306732165411,3.70818
1306732225411,3.68998
1306732285411,3.75146
1306732345411,3.72288
1306732405411,3.74080
1306732465411,3.72825
1306732525411,3.79157
1306732585411,3.76229
1306732645411,3.74570
1306732705411,3.76675
1306732765411,3.77956
1306732825411,3.79812
1306732885411,3.77866
1306732945411,3.79222
1306733005411,3.77832
1306733065411,3.80878
1306733125411,3.82276
1306733185411,3.80875
1306733245411,3.81757
1306733305411,3.84379
1306733365411,3.85110
1306733425411,3.85745
1306733485411,3.85803
1306733545411,3.89300
1306733605411,3.89019
1306733665411,3.88400
1306733725411,3.91062
1306733785411,3.90838
1306733845411,3.91521
1306733905411,3.91201
1306733965411,3.93008
1306734025411,3.89253
1306734085411,3.93529
1306734145411,3.88250
1306734205411,3.89681
1306734265411,3.89679
1306734325411,3.89098
1306734385411,3.91049
1306734445411,3.94607
1306734505411,4.07405
1306734565411,4.11792
1306734625411,4.07944
1306734685411,3.98729
1306734745411,3.92091
1306734805411,3.89876
1306734865411,3.89036
1306734925411,3.92066
1306734985411,3.91901
1306735045411,3.89929
1306735105411,3.88691
1306735165411,3.89254
1306735225421,3.90375
1306735285421,3.97391
1306735345421,4.22442
1306735405421,4.15538
1306735465421,4.08593
1306735525421,4.22034
1306735585421,4.29199
1306735645421,4.01721
1306735705421,3.93193
1306735765421,3.89978
1306735825421,3.90866
1306735885421,3.88819
1306735945421,3.88358
1306736005421,3.88281
1306736065421,3.89139
1306736125421,3.88902
1306736185421,3.84845
1306736245421,3.87725
1306736305421,3.87232
1306736365421,3.84475
1306736425421,3.89036
1306736485421,3.84955
1306736545421,3.86850
1306736605421,3.94551
1306736665421,3.85354
1306736725421,3.83994
1306736785421,3.88273
1306736845421,3.82208
1306736905421,3.91733
1306736965421,3.88878
1306737025421,3.84071
1306737085421,3.87268
1306737145421,3.85122
1306737205421,3.85759
1306737265421,3.85324
1306737325421,3.84189
1306737385421,3.94357
1306737445421,3.82799
1306737505421,3.86202
1306737565421,3.84325
1306737625421,3.84755
1306737685421,3.81269
1306737745421,3.83871
1306737805421,3.84579
1306737865421,3.80425
1306737925421,3.81116
1306737985421,3.81799
1306738045421,3.80287
1306738105421,3.79274
1306738165421,3.81798
1306738225421,3.83961
1306738285421,3.83295
1306738345421,3.81088
1306738405421,3.80988
1306738465421,3.83385
1306738525421,3.81032
1306738585421,3.80805
1306738645421,3.80819
1306738705421,3.86854
1306738765421,3.81916
1306738825430,3.82908
1306738885430,3.82177
1306738945430,3.81889
1306739005430,3.83711
1306739065430,3.82151
1306739125430,3.83121
1306739185430,3.81723
1306739245430,3.83024
1306739305430,3.82352
1306739365430,3.80012
1306739425430,3.80177
1306739485430,3.84388
1306739545430,3.79321
1306739605430,3.80281
1306739665430,3.80971
1306739725430,3.81702
1306739785430,3.81939
1306739845430,3.79666
1306739905430,3.79281
1306739965430,3.82286
1306740025430,3.80483
1306740085430,3.80498
1306740145430,3.77538
1306740205430,3.80211
1306740265430,3.79508
1306740325430,3.75235
1306740385430,3.77362
1306740445430,3.78956
1306740505430,3.78432
1306740565430,3.79908
1306740625430,3.78002
1306740685430,3.82566
1306740745430,3.78663
1306740805430,3.75441
1306740865430,3.78723
1306740925430,3.79714
1306740985430,3.79678
1306741045430,3.79675
1306741105430,3.77760
1306741165430,3.76934
1306741225430,3.79422
1306741285430,3.79116
1306741345430,3.78234
1306741405430,3.79793
1306741465430,3.78944
1306741525430,3.76357
1306741585430,3.78162
1306741645430,3.75697
1306741705430,3.78353
1306741765430,3.79975
1306741825430,3.82429
1306741885430,3.77065
1306741945430,3.79281
1306742005430,3.77438
1306742065430,3.75032
1306742125430,3.79722
1306742185430,3.79312
1306742245430,3.78387
1306742305430,3.80483
1306742365430,3.77915
1306742425440,3.78240
1306742485440,3.78528
1306742545440,3.78857
1306742605440,3.81794
1306742665440,3.79645
1306742725440,3.79777
1306742785440,3.79079
1306742845440,3.79230
1306742905440,3.81347
1306742965440,3.79319
1306743025440,3.77110
1306743085440,3.76781
1306743145440,3.77083
1306743205440,3.77278
1306743265440,3.78048
1306743325440,3.78221
1306743385440,3.73567
1306743445440,3.80438
1306743505440,3.78604
1306743565440,3.76860
1306743625440,3.80468
1306743685440,3.78307
1306743745440,3.76735
1306743805440,3.78216
1306743865440,3.79445
1306743925440,3.77931
1306743985440,3.77428
1306744045440,3.74547
1306744105440,3.79438
1306744165440,3.77546
1306744225440,3.76554
1306744285440,3.80392
1306744345440,3.78109
1306744405440,3.77776
1306744465440,3.76843
1306744525440,3.79084
1306744585440,3.78454
1306744645440,3.77933
1306744705440,3.79862
1306744765440,3.76360
1306744825440,3.74283
1306744885440,3.75786
1306744945440,3.75428
1306745005440,3.78981
1306745065440,3.78193
1306745125440,3.75219
1306745185440,3.77518
1306745245440,3.78669
1306745305440,3.77726
1306745365440,3.76634
1306745425440,3.79000
1306745485440,3.78201
1306745545440,3.75040
1306745605440,3.76045
1306745665440,3.77734
1306745725440,3.80121
1306745785440,3.76751
1306745845440,3.85727
1306745905440,3.73919
1306745965440,3.77478
1306746025449,3.76693
1306746085449,3.75939
1306746145449,3.74746
1306746205449,3.77576
1306746265449,3.74879
1306746325449,3.76906
1306746385449,3.78767
1306746445449,3.78768
1306746505449,3.77310
1306746565449,3.80297
1306746625449,3.79512
1306746685449,3.79671
1306746745449,3.79583
1306746805449,3.77987
1306746865449,3.80588
1306746925449,3.80624
1306746985449,3.78173
1306747045449,3.76092
1306747105449,3.78881
1306747165449,3.80086
1306747225449,3.74592
1306747285449,3.79702
1306747345449,3.79435
1306747405449,3.79011
1306747465449,3.79501
1306747525449,3.80058
1306747585449,3.77067
1306747645449,3.79755
1306747705449,3.79077
1306747765449,3.80550
1306747825449,3.80304
1306747885449,3.80326
1306747945449,3.79527
1306748005449,3.76634
1306748065449,3.82027
1306748125449,3.82742
1306748185449,3.83791
1306748245449,3.77364
1306748305449,3.82271
1306748365449,3.82430
1306748425449,3.81120
1306748485449,3.79011
1306748545449,3.84686
1306748605449,3.80293
1306748665449,3.79744
1306748725449,3.80693
1306748785449,3.79061
1306748845449,3.81326
1306748905449,3.82282
1306748965449,3.79592
1306749025449,3.79182
1306749085449,3.78489
1306749145449,3.78371
1306749205449,3.81195
1306749265449,3.78014
1306749325449,3.78048
1306749385449,3.78401
1306749445449,3.75394
1306749505449,3.78008
1306749565449,3.79112
1306749625458,3.78711
1306749685458,3.79739
1306749745458,3.77466
1306749805458,3.80089
1306749865458,3.78358
1306749925458,3.78714
1306749985458,3.80537
1306750045458,3.79767
1306750105458,3.78639
1306750165458,3.77912
1306750225458,3.76407
1306750285458,3.79816
1306750345458,3.78418
1306750405458,3.78966
1306750465458,3.75213
1306750525458,3.79027
1306750585458,3.79962
1306750645458,3.76450
1306750705458,3.78772
1306750765458,3.83202
1306750825458,3.79551
1306750885458,3.77867
1306750945458,3.77359
1306751005458,3.79761
1306751065458,3.76745
1306751125458,3.76958
1306751185458,3.79272
1306751245458,3.79889
1306751305458,3.76792
1306751365458,3.80446
1306751425458,3.80170
1306751485458,3.79142
1306751545458,3.78530
1306751605458,3.77036
1306751665458,3.79070
1306751725458,3.78590
1306751785458,3.76192
1306751845458,3.77196
1306751905458,3.78810
1306751965458,3.78355
1306752025458,3.78374
1306752085458,3.76357
1306752145458,3.76755
1306752205458,3.78223
1306752265458,3.76480
1306752325458,3.77347
1306752385458,3.75815
1306752445458,3.79240
1306752505458,3.80589
1306752565458,3.81538
1306752625458,3.82502
1306752685458,3.86216
1306752745458,3.89410
1306752805458,3.93124
1306752865458,3.95320
1306752925458,3.97405
1306752985458,4.03787
1306753045458,4.08343
1306753105458,4.09024
1306753165458,4.10536
1306753225467,4.12252
1306753285467,4.09976
1306753345467,4.10397
1306753405467,4.07838
1306753465467,4.05349
1306753525467,4.07192
1306753585467,4.00854
1306753645467,3.99507
1306753705467,4.00442
1306753765467,4.02264
1306753825467,4.00060
1306753885467,3.98308
1306753945467,3.97000
1306754005467,3.98571
1306754065467,3.97479
1306754125467,4.00298
1306754185467,3.97468
1306754245467,3.93613
1306754305467,3.98283
1306754365467,3.97327
1306754425467,3.91965
1306754485467,3.94070
1306754545467,3.93892
1306754605467,3.92261
1306754665467,3.93356
1306754725467,3.92807
1306754785467,3.89892
1306754845467,3.90080
1306754905467,3.89796
1306754965467,3.89559
1306755025467,3.87027
1306755085467,3.91349
1306755145467,3.92750
1306755205467,3.88250
1306755265467,3.91016
1306755325467,3.87868
1306755385467,3.89583
1306755445467,3.88580
1306755505467,3.86076
1306755565467,3.87657
1306755625467,3.87860
1306755685467,3.86682
1306755745467,3.85484
1306755805467,3.88882
1306755865467,3.85923
1306755925467,3.82418
1306755985467,3.85767
1306756045467,3.83151
1306756105467,3.82794
1306756165467,3.87233
1306756225467,3.85850
1306756285467,3.85045
1306756345467,3.86268
1306756405467,3.86624
1306756465467,3.86753
1306756525467,3.88404
1306756585467,3.86849
1306756645467,3.84119
1306756705467,3.89495
1306756765467,3.83271
1306756825477,3.81924
1306756885477,3.79263
1306756945477,3.82514
1306757005477,3.81221
1306757065477,3.83285
1306757125477,3.82336
1306757185477,3.78492
1306757245477,3.80586
1306757305477,3.81555
1306757365477,3.79217
1306757425477,3.77635
1306757485477,3.78234
1306757545477,3.77951
1306757605477,3.80377
1306757665477,3.78267
1306757725477,3.77962
1306757785477,3.79758
1306757845477,3.76891
1306757905477,3.80658
1306757965477,3.78902
1306758025477,3.79855
1306758085477,3.76976
1306758145477,3.76803
1306758205477,3.78912
1306758265477,3.80370
1306758325477,3.78439
1306758385477,3.76733
1306758445477,3.75567
1306758505477,3.79405
1306758565477,3.80221
1306758625477,3.76241
1306758685477,3.74509
1306758745477,3.75389
1306758805477,3.78783
1306758865477,3.80289
1306758925477,3.79047
1306758985477,3.78459
1306759045477,3.78706
1306759105477,3.79096
1306759165477,3.78456
1306759225477,3.79888
1306759285477,3.77162
1306759345477,3.78264
1306759405477,3.79875
1306759465477,3.79254
1306759525477,3.79954
1306759585477,3.77846
1306759645477,3.80438
1306759705477,3.79693
1306759765477,3.76933
1306759825477,3.78658
1306759885477,3.80147
1306759945477,3.77377
1306760005477,3.76350
1306760065477,3.83924
1306760125477,3.80534
1306760185477,3.80397
1306760245477,3.79503
1306760305477,3.78712
1306760365477,3.76859
1306760425486,3.78491
1306760485486,3.77750
1306760545486,3.78092
1306760605486,3.80348
1306760665486,3.76830
1306760725486,3.78074
1306760785486,3.77316
1306760845486,3.78607
1306760905486,3.76531
1306760965486,3.79310
1306761025486,3.75262
1306761085486,3.76953
1306761145486,3.78320
1306761205486,3.77442
1306761265486,3.77071
1306761325486,3.77031
1306761385486,3.75349
1306761445486,3.77429
1306761505486,3.77219
1306761565486,3.77285
1306761625486,3.77053
1306761685486,3.76831
1306761745486,3.75873
1306761805486,3.79075
1306761865486,3.73299
1306761925486,3.80522
1306761985486,3.79687
1306762045486,3.80644
1306762105486,3.77719
1306762165486,3.78618
1306762225486,3.76305
1306762285486,3.78354
1306762345486,3.77332
1306762405486,3.78444
1306762465486,3.87774
1306762525486,3.77143
1306762585486,3.78448
1306762645486,3.80552
1306762705486,3.81937
1306762765486,3.81031
1306762825486,3.80169
1306762885486,3.81050
1306762945486,3.80410
1306763005486,3.78053
1306763065486,3.78700
1306763125486,3.77561
1306763185486,3.75511
1306763245486,3.77373
1306763305486,3.75712
1306763365486,3.77046
1306763425486,3.80968
1306763485486,3.77422
1306763545486,3.80201
1306763605486,3.79954
1306763665486,3.78063
1306763725486,3.74109
1306763785486,3.78915
1306763845486,3.76695
1306763905486,3.78450
1306763965486,3.80836
1306764025495,3.79013
1306764085495,3.77541
1306764145495,3.75848
1306764205495,3.79600
1306764265495,3.77984
1306764325495,3.76143
1306764385495,3.77699
1306764445495,3.79814
1306764505495,3.79394
1306764565495,3.78495
1306764625495,3.82111
1306764685495,3.80033
1306764745495,3.77870
1306764805495,3.80443
1306764865495,3.80604
1306764925495,3.79911
1306764985495,3.80419
1306765045495,3.79280
1306765105495,3.78486
1306765165495,3.79666
1306765225495,3.81440
1306765285495,3.83624
1306765345495,3.81551
1306765405495,3.81661
1306765465495,3.80424
1306765525495,3.78627
1306765585495,3.80917
1306765645495,3.79012
1306765705495,3.81898
1306765765495,3.79726
1306765825495,3.81528
1306765885495,3.80524
1306765945495,3.82619
1306766005495,3.78525
1306766065495,3.81664
1306766125495,3.81408
1306766185495,3.81230
1306766245495,3.80035
1306766305495,3.85220
1306766365495,3.82072
1306766425495,3.78975
1306766485495,3.76650
1306766545495,3.79593
1306766605495,3.82411
1306766665495,3.81718
1306766725495,3.79984
1306766785495,3.81158
1306766845495,3.82800
1306766905495,3.79106
1306766965495,3.82999
1306767025495,3.82347
1306767085495,3.80741
1306767145495,3.84363
1306767205495,3.80730
1306767265495,3.78923
1306767325495,3.84304
1306767385495,3.80827
1306767445495,3.82127
1306767505495,3.79461
1306767565495,3.84888
1306767625504,3.84597
1306767685504,3.85021
1306767745504,3.80691
1306767805504,3.82102
1306767865504,3.86254
1306767925504,3.77770
1306767985504,3.82971
1306768045504,3.81088
1306768105504,3.79340
1306768165504,3.84292
1306768225504,3.81638
1306768285504,3.83498
1306768345504,3.84687
1306768405504,3.82575
1306768465504,3.82971
1306768525504,3.83107
1306768585504,3.83089
1306768645504,3.82094
1306768705504,3.86865
1306768765504,3.83024
1306768825504,3.84921
1306768885504,3.85272
1306768945504,3.87559
1306769005504,3.83855
1306769065504,3.83301
1306769125504,3.82257
1306769185504,3.86997
1306769245504,3.82801
1306769305504,3.90219
1306769365504,3.85416
1306769425504,3.83469
1306769485504,3.84240
1306769545504,3.82863
1306769605504,3.85223
1306769665504,3.84056
1306769725504,3.84941
1306769785504,3.81920
1306769845504,3.87227
1306769905504,3.86314
1306769965504,3.85185
1306770025504,3.85855
1306770085504,3.83351
1306770145504,3.84603
1306770205504,3.82301
1306770265504,3.86492
1306770325504,3.82876
1306770385504,3.84356
1306770445504,3.84414
1306770505504,3.87555
1306770565504,3.83021
1306770625504,3.89926
1306770685504,3.84186
1306770745504,3.84355
1306770805504,3.87273
1306770865504,3.85573
1306770925504,3.82283
1306770985504,3.81959
1306771045504,3.84430
1306771105504,3.86663
1306771165504,3.89211
1306771225514,3.84277
1306771285514,3.83133
1306771345514,3.88255
1306771405514,3.85058
1306771465514,3.85962
1306771525514,3.85170
1306771585514,3.92451
1306771645514,3.88895
1306771705514,3.87552
1306771765514,3.82510
1306771825514,3.88990
1306771885514,3.92967
1306771945514,3.86233
1306772005514,3.91479
1306772065514,3.89023
1306772125514,3.86738
1306772185514,3.89705
1306772245514,3.87780
1306772305514,3.86327
1306772365514,3.85747
1306772425514,3.86491
1306772485514,3.89726
1306772545514,3.89891
1306772605514,3.88996
1306772665514,3.92734
1306772725514,3.85234
1306772785514,3.86443
1306772845514,3.89024
1306772905514,3.90168
1306772965514,3.87350
1306773025514,3.88680
1306773085514,3.89038
1306773145514,3.86931
1306773205514,3.86839
1306773265514,3.85796
1306773325514,3.86911
1306773385514,3.86740
1306773445514,3.85385
1306773505514,3.86526
1306773565514,3.88820
1306773625514,3.85775
1306773685514,3.89380
1306773745514,3.88174
1306773805514,3.86678
1306773865514,3.85204
1306773925514,3.88668
1306773985514,3.85002
1306774045514,3.88856
1306774105514,3.84044
1306774165514,3.84908
1306774225514,3.82233
1306774285514,3.88191
1306774345514,3.83599
1306774405514,3.85530
1306774465514,3.87762
1306774525514,3.89497
1306774585514,3.85823
1306774645514,3.83315
1306774705514,3.87476
1306774765514,3.82921
1306774825523,3.87829
1306774885523,3.82786
1306774945523,3.85623
1306775005523,3.82086
1306775065524,3.85407
1306775125524,3.86297
1306775185524,3.86766
1306775245524,3.83743
1306775305524,3.84469
1306775365524,3.84125
1306775425523,3.86681
1306775485523,3.87944
1306775545523,3.83999
1306775605523,3.82590
1306775665523,3.84528
1306775725523,3.87605
1306775785523,3.82194
1306775845523,3.85979
1306775905523,3.83966
1306775965523,3.82888
1306776025523,3.86335
1306776085524,3.85201
1306776145523,3.82197
1306776205523,3.83982
1306776265523,3.83633
1306776325523,3.90821
1306776385523,3.85543
1306776445524,3.82845
1306776505524,3.83784
1306776565524,3.83176
1306776625524,3.85653
1306776685524,3.83698
1306776745524,3.85015
1306776805523,3.82152
1306776865523,3.84456
1306776925523,3.83137
1306776985523,3.84552
1306777045523,3.83293
1306777105523,3.82315
1306777165523,3.83814
1306777225523,3.85623
1306777285523,3.85382
1306777345523,3.85540
1306777405523,3.83487
1306777465523,3.82800
1306777525523,3.82375
1306777585523,3.82413
1306777645523,3.83614
1306777705523,3.82210
1306777765524,3.76731
1306777825524,3.82120
1306777885524,3.80802
1306777945524,3.83043
1306778005524,3.81794
1306778065524,3.86529
1306778125523,3.83509
1306778185523,3.82694
1306778245523,3.83273
1306778305523,3.81610
1306778365523,3.82580
1306778425533,3.83721
1306778485533,3.84791
1306778545533,3.81432
1306778605533,3.82444
1306778665533,3.82111
1306778725533,3.84453
1306778785533,3.80306
1306778845533,3.80648
1306778905533,3.83982
1306778965533,3.81707
1306779025533,3.83955
1306779085533,3.80464
1306779145533,3.78982
1306779205533,3.86430
1306779265533,3.82725
1306779325533,3.82142
1306779385533,3.79453
1306779445533,3.82796